[ ตารางข้อมูล ] [ Min-Max ] [ วันนี้2 ] [ วันนี้4 ] [ เทียบ-A 3วัน ] [ เทียบ-B 4วัน ]   

วันนี้2   [ ◀ ช่วงเก่ากว่า ] [ ช่วงที่ 39 ] [ ช่วงใหม่กว่า ▶ ] [ ล่าสุด ]    [ 3 ชั่วโมง ] [ 6 ชั่วโมง ] [ 12 ชั่วโมง ] [ 24 ชั่วโมง ]   วันนี้2

อุณภูมิในตู้ Knockdown4529  ราย 6 ชั่วโมง  ที่วัดได้ ในช่วงวันเวลา 22/08/2026 (23:54) ถึง 23/08/2026 (05:54) 
ความชื้นในตู้ Knockdown4529  ราย 6 ชั่วโมง  ที่วัดได้ ในช่วงวันเวลา 22/08/2026 (23:54) ถึง 23/08/2026 (05:54) 
การใช้ไฟฟ้าในตู้ Knockdown4529  ราย 6 ชั่วโมง  ที่วัดได้ ในช่วงวันเวลา 22/08/2026 (23:54) ถึง 23/08/2026 (05:54) 

  DS18B20SHTC3PZEM-004TWiFi 
IDDate d/m/Y & Timedata1
สูง
data2
ต่ำ
data3
นอก
temp
pcb
hum
pcb
VoltAmpWattrssiTime
 15176  23/08/2026 05:50:06  29.7  29.9  27.0  30.6  68.0  231.5  0.04  4.6  -77  05:50 
 15175  23/08/2026 05:45:23  29.8  29.9  26.7  30.6  68.0  227.9  0.04  4.6  -77  05:45 
 15174  23/08/2026 05:40:40  29.8  29.9  26.9  30.5  68.0  231.4  0.04  4.6  -77  05:40 
 15173  23/08/2026 05:35:56  29.8  30.0  27.0  30.5  67.9  229.5  0.04  4.6  -78  05:35 
 15172  23/08/2026 05:31:13  29.8  30.0  26.9  30.7  68.1  227.8  0.04  4.6  -79  05:31 
 15171  23/08/2026 05:26:30  29.8  30.0  26.8  30.8  68.1  229.9  0.04  4.6  -78  05:26 
 15170  23/08/2026 05:21:46  29.8  30.1  26.5  30.6  67.9  229.4  0.04  4.6  -79  05:21 
 15169  23/08/2026 05:17:03  29.9  30.1  26.5  30.6  67.9  229.8  0.04  4.6  -77  05:17 
 15168  23/08/2026 05:12:20  29.9  30.1  26.2  30.8  67.9  230.1  0.04  4.6  -74  05:12 
 15167  23/08/2026 05:07:36  29.9  30.1  26.2  30.8  67.9  231.2  0.04  4.6  -76  05:07 
 15166  23/08/2026 05:02:53  29.9  30.1  26.3  30.7  67.9  228.6  0.04  4.6  -78  05:02 
 15165  23/08/2026 04:58:09  29.9  30.2  26.4  30.8  68.1  232.2  0.04  4.6  -76  04:58 
 15164  23/08/2026 04:53:26  30.0  30.2  26.4  30.8  68.1  229.5  0.04  4.6  -77  04:53 
 15163  23/08/2026 04:48:43  30.0  30.2  26.4  30.8  68.0  231.5  0.04  4.6  -78  04:48 
 15162  23/08/2026 04:44:00  30.0  30.2  26.4  30.8  67.9  229.6  0.04  4.6  -77  04:44 
 15161  23/08/2026 04:39:17  30.1  30.2  26.7  31.1  67.9  228.9  0.04  4.6  -78  04:39 
 15160  23/08/2026 04:34:33  30.1  30.2  26.9  30.8  67.9  229.2  0.04  4.6  -76  04:34 
 15159  23/08/2026 04:29:50  30.1  30.3  26.9  30.8  67.9  230.5  0.04  4.6  -76  04:29 
 15158  23/08/2026 04:25:06  30.1  30.3  26.7  30.8  67.9  229.9  0.04  4.6  -77  04:25 
 15157  23/08/2026 04:20:22  30.1  30.4  26.7  30.9  67.9  229.9  0.04  4.6  -78  04:20 
 15156  23/08/2026 04:15:38  30.2  30.4  26.6  31.0  68.0  231.6  0.04  4.6  -77  04:15 
 15155  23/08/2026 04:10:55  30.2  30.4  26.7  31.1  67.8  230.0  0.04  4.6  -78  04:10 
 15154  23/08/2026 04:06:11  30.2  30.4  26.5  31.1  67.8  231.0  0.04  4.6  -76  04:06 
 15153  23/08/2026 04:01:28  30.2  30.4  26.5  31.0  67.7  228.3  0.04  4.6  -77  04:01 

Data every 5 minute.


ใช้เวลาประมวลผล 0.03103 วินาที